Location: Allentsteig
(48.6833°N, 15.3167°E)
Time: 16:34:39
(UTC+00:00)

DMSP B5D2-2 - Pass Details

Date: 18 September 2020
Orbit: 790 x 806 km, 98.3° (Epoch: 28 October)

Event Time Altitude Azimuth Distance (km) Brightness Sun altitude
Rises 18:38:35 0° 16° (NNE) 3,334 7.4 -16.0°
Reaches altitude 10° 18:40:58 10° 20° (NNE) 2,399 6.6 -16.3°
Maximum altitude 18:46:13 61° 101° (E) 913 4.1 -17.1°
Drops below altitude 10° 18:51:26 10° 182° (S) 2,380 6.3 -17.9°
Sets 18:53:47 0° 186° (S) 3,305 7.1 -18.3°
